User: anonymous   Login
Location: Ayer Observatory
(42.2600°N, 71.0700°W)
Time: 15:06:25
(UTC-04:00)
Language:

XW-2A - Orbit

View from above orbital plane
View from above orbital plane
View from above satellite
View from above satellite

Ground track
Ground track

The orbit data is extracted from the following two-line orbital elements,

1 40903U 15049E   21163.58562329  .00003377  00000-0  72583-4 0  9997
2 40903  97.2366 218.0820 0013255  40.2173  96.6115 15.45292676322041
Epoch (UTC): 12 June 2021 14:03:17
Eccentricity: 0.0013255
inclination: 97.2366°
perigee height: 421 km
apogee height: 439 km
right ascension of ascending node: 218.0820°
argument of perigee: 40.2173°
revolutions per day: 15.45292676
mean anomaly at epoch: 96.6115°
orbit number at epoch: 32204

The dashed part of the orbit path shows where the satellite is in the earth's shadow,  

DLR